EZY536F EGJJ-EGAA

Flight info

Callsign EZY536F
Flight time N/A
Altitude 24000
Route N0365F240 SKERY L22 EMWIP P16 FIMCA/N0429F340 DCT TOJAQ DCT UNFIT DCT PENWU DCT NICXI DCT VATRY DCT DUB/N0361F230 N34 BELZU
Aircraft A320/M-SDE2E3FGHIJ1RWXYZ/LB1

Departure

Time N/A
Airport Jersey Airport (EGJJ)

Arrival

Time 2026-05-03 20:17
Airport Belfast International Airport (EGAA)
Time Latitude Longitude Altitude Speed Heading
2026-05-03 20:15 54.62994 -6.31778 1266 ft 141 kts 64°
2026-05-03 20:15 54.63402 -6.30293 1052 ft 137 kts 64°
2026-05-03 20:15 54.63806 -6.28826 875 ft 134 kts 63°
2026-05-03 20:15 54.64210 -6.27369 744 ft 135 kts 64°
2026-05-03 20:16 54.64602 -6.25898 603 ft 135 kts 65°
2026-05-03 20:16 54.64983 -6.24423 422 ft 135 kts 65°
2026-05-03 20:16 54.65379 -6.22964 274 ft 130 kts 63°
2026-05-03 20:16 54.65695 -6.21793 272 ft 83 kts 65°
2026-05-03 20:17 54.65858 -6.21175 272 ft 26 kts 65°
2026-05-03 20:17 54.65890 -6.21034 272 ft 11 kts 82°
2026-05-03 20:17 54.65908 -6.20977 272 ft 1 kts 314°
2026-05-03 20:17 54.65896 -6.21037 272 ft 8 kts 245°
2026-05-03 20:18 54.65873 -6.21121 272 ft 7 kts 245°
2026-05-03 20:18 54.65854 -6.21194 272 ft 6 kts 246°
2026-05-03 20:18 54.65846 -6.21259 272 ft 5 kts 275°
2026-05-03 20:18 54.65866 -6.21319 272 ft 7 kts 317°
2026-05-03 20:19 54.65920 -6.21366 272 ft 10 kts 336°
2026-05-03 20:19 54.65966 -6.21432 272 ft 8 kts 285°
2026-05-03 20:19 54.65952 -6.21516 277 ft 7 kts 258°
2026-05-03 20:19 54.65974 -6.21567 272 ft 5 kts 336°
2026-05-03 20:20 54.66002 -6.21585 272 ft 4 kts 338°
2026-05-03 20:20 54.66027 -6.21605 272 ft 4 kts 335°
2026-05-03 20:20 54.66047 -6.21621 272 ft 3 kts 335°
2026-05-03 20:20 54.66062 -6.21633 272 ft 2 kts 335°
2026-05-03 20:21 54.66073 -6.21642 275 ft 2 kts 335°
2026-05-03 20:21 54.66081 -6.21648 273 ft 1 kts 335°
2026-05-03 20:21 54.66082 -6.21649 272 ft 0 kts 335°